カタログに戻る

JCSAT 17

運用中通信GEO
NORAD 45245·PAYLOAD·🇯🇵 Japan

打ち上げ Feb 18, 2020 から Guiana Space Centre

Loading…

TLE

最新Source: Space-Track

元期: Sep 14, 2026, 12:44 UTC

1 45245U 20013A   26257.53084872 -.00000323  00000-0  00000-0 0  9994
2 45245   5.3975 357.6952 0004269 177.5746 145.3231  1.00271427 24128

AllMySatでJCSAT 17をリアルタイム追跡

Download on the App Store